Blue Oak Ranch Reserve, California Weather observations

Data are for 10 minute period ending at time listed.
 Day   Time   Solar   Ave.   Ave.  Ave.  Vector  Max.   Baro.   Total    
  of    of     Rad.   Air    Rel.  Wind   Wind   Wind  Press.  Precip.   
Year   Day            Temp.  Hum.  Speed  Dir.   Gust                    
2026   (PST)  Kw/m2    F      %     mph   deg.    mph    mb.     in.     
-------------------------------------------------------------------------
 242   18:40   0.01   64.8    61    1.5   242     3.0   946.8    0.00 
 242   18:50   0.00   63.5    62    0.2   236     1.2   946.9    0.00 
 242   19:00   0.00   61.9    65    0.4   354     1.3   946.9    0.00 
 242   19:10   0.00   60.8    65    0.7     8     1.5   946.9    0.00 
 242   19:20   0.00   59.9    67    1.2   274     2.4   946.9    0.00 
 242   19:30   0.00   59.1    69    0.7   324     1.8   946.9    0.00 
 242   19:40   0.00   58.2    70    0.4   311     1.1   947.1    0.00 
 242   19:50   0.00   57.5    71    0.0     0     0.0   947.1    0.00 
 242   20:00   0.00   56.9    72    0.1   285     0.8   947.2    0.00 
 242   20:10   0.00   56.4    73    0.3     2     1.5   947.3    0.00 
 242   20:20   0.00   55.8    74    0.2    44     1.2   947.4    0.00 
 242   20:30   0.00   55.3    75    0.0     0     0.0   947.5    0.00 
 242   20:40   0.00   55.0    76    0.0     0     0.0   947.5    0.00 
 242   20:50   0.00   54.6    76    0.0     0     0.0   947.5    0.00 
 242   21:00   0.00   54.3    77    0.4    44     1.4   947.5    0.00 
 242   21:10   0.00   54.0    79    0.3   254     1.6   947.5    0.00 
 242   21:20   0.00   54.3    82    1.0   295     1.8   947.5    0.00 
 242   21:30   0.00   54.0    79    0.2   282     1.0   947.4    0.00 
 242   21:40   0.00   53.3    80    0.0   318     0.5   947.4    0.00 
 242   21:50   0.00   52.5    80    0.8    58     1.7   947.4    0.00 
 242   22:00   0.00   51.7    82    0.0   308     0.4   947.4    0.00 
 242   22:10   0.00   51.2    83    0.0     0     0.0   947.4    0.00 
 242   22:20   0.00   50.9    83    0.0     0     0.0   947.3    0.00 
 242   22:30   0.00   50.8    83    0.1   360     0.8   947.3    0.00 
 242   22:40   0.00   50.4    84    1.0   287     2.0   947.2    0.00 
 242   22:50   0.00   50.0    85    0.2    50     1.5   947.2    0.00 
 242   23:00   0.00   49.7    85    1.0    58     2.3   947.1    0.00 
 242   23:10   0.00   49.5    86    0.9    78     2.4   947.1    0.00 
 242   23:20   0.00   49.4    86    1.1   292     1.8   947.1    0.00 
 242   23:30   0.00   49.0    86    0.8   292     1.8   947.0    0.00 
 242   23:40   0.00   49.1    88    0.4   275     1.0   947.0    0.00 
 242   23:50   0.00   49.4    89    0.1   262     1.0   947.0    0.00 
 243    0:00   0.00   49.4    88    0.0    92     0.4   947.1    0.00 
 243    0:10   0.00   49.4    88    0.0    68     0.4   947.0    0.00 
 243    0:20   0.00   49.3    88    0.4    58     1.2   947.0    0.00 
 243    0:30   0.00   49.6    89    0.0     0     0.0   946.9    0.00 
 243    0:40   0.00   49.6    90    0.5   279     1.5   946.9    0.00 
 243    0:50   0.00   49.8    90    0.7   295     2.3   946.9    0.00 
 243    1:00   0.00   49.6    90    2.1    59     3.1   946.8    0.00 
 243    1:10   0.00   49.8    90    0.9   292     2.0   946.7    0.00 
 243    1:20   0.00   50.1    90    1.2   278     2.3   946.7    0.00 
 243    1:30   0.00   49.6    90    0.0   285     0.7   946.7    0.00 
 243    1:40   0.00   49.9    91    0.3    46     1.5   946.6    0.00 
 243    1:50   0.00   49.9    91    0.2   116     1.0   946.7    0.00 
 243    2:00   0.00   49.5    90    1.9   282     2.8   946.7    0.00 
 243    2:10   0.00   49.2    91    0.6    64     1.7   946.7    0.00 
 243    2:20   0.00   49.1    91    1.3    63     2.0   946.6    0.00 
 243    2:30   0.00   48.7    91    0.2   153     1.1   946.6    0.00 
 243    2:40   0.00   48.8    91    0.4    86     1.5   946.6    0.00 
 243    2:50   0.00   49.0    91    1.0   111     2.8   946.5    0.00 
 243    3:00   0.00   48.6    90    0.5   276     1.6   946.6    0.00 
 243    3:10   0.00   47.8    89    0.3   272     1.4   946.6    0.00 
 243    3:20   0.00   47.0    89    0.1   132     1.0   946.6    0.00 
 243    3:30   0.00   46.7    90    2.1   124     4.7   946.6    0.00 
 243    3:40   0.00   46.8    92    1.3   150     2.3   946.6    0.00 
 243    3:50   0.00   46.6    92    0.0   179     0.7   946.6    0.00 
 243    4:00   0.00   46.0    92    0.7    60     1.8   946.7    0.00 
 243    4:10   0.00   45.5    92    0.9    71     2.5   946.8    0.00 
 243    4:20   0.00   44.8    92    0.8   292     2.0   946.8    0.00 
 243    4:30   0.00   44.5    92    0.3   290     1.5   946.8    0.00 
 243    4:40   0.00   44.2    92    0.5   154     1.4   946.8    0.00 
 243    4:50   0.00   44.0    93    0.4   179     1.5   946.8    0.00 
 243    5:00   0.00   43.9    92    0.0     0     0.0   946.8    0.00 
 243    5:10   0.00   43.7    93    1.2    67     2.9   947.0    0.00 
 243    5:20   0.00   44.4    94    1.7    70     3.3   947.0    0.00 
 243    5:30   0.00   44.3    94    1.8   280     4.0   947.1    0.00 
 243    5:40   0.00   45.2    94    1.7    57     4.2   947.3    0.00 
 243    5:50   0.00   46.0    94    1.3    52     4.1   947.3    0.00 
 243    6:00   0.01   46.6    94    0.3   333     2.2   947.5    0.00 
 243    6:10   0.01   47.9    95    1.5    35     3.0   947.6    0.00 
 243    6:20   0.02   48.7    94    1.1    55     3.4   947.7    0.00 
 243    6:30   0.03   49.5    94    1.6    68     3.7   947.8    0.00 
 243    6:40   0.04   50.0    94    2.2    70     4.0   947.8    0.00 
 243    6:50   0.04   50.3    94    0.5    79     3.4   948.0    0.00 
 243    7:00   0.05   50.3    94    1.3   149     2.8   948.1    0.00 
 243    7:10   0.06   50.1    94    1.9   160     2.8   948.2    0.00 
 243    7:20   0.07   50.1    95    1.4   170     2.0   948.3    0.00 
 243    7:30   0.11   50.4    95    1.5   169     2.5   948.2    0.00 
 243    7:40   0.13   50.8    95    0.4   183     2.3   948.2    0.00 
 243    7:50   0.15   51.3    95    0.9    17     2.3   948.2    0.00 
 243    8:00   0.15   51.5    95    1.2   188     3.4   948.3    0.00 
 243    8:10   0.17   51.7    95    1.1   158     3.5   948.3    0.00 
 243    8:20   0.18   52.0    94    1.4   169     3.1   948.3    0.00 
 243    8:30   0.18   52.0    94    3.0   169     4.5   948.3    0.00 
 243    8:40   0.16   52.3    94    3.2   250     5.3   948.5    0.00 
 243    8:50   0.20   52.4    94    1.2   280     3.6   948.6    0.00 
 243    9:00   0.22   52.8    93    1.5   253     3.2   948.6    0.00 
 243    9:10   0.28   53.2    92    1.6   159     3.7   948.7    0.00 
 243    9:20   0.33   54.1    89    2.3   255     6.2   948.8    0.00 
 243    9:30   0.24   54.8    86    3.3   250     6.4   949.0    0.00 
 243    9:40   0.22   53.7    88    3.7   244     7.6   949.1    0.00 
 243    9:50   0.23   54.0    87    3.2   259     5.1   949.1    0.00 
 243   10:00   0.28   54.3    86    3.6   256     5.8   949.3    0.00 
 243   10:10   0.31   54.8    82    3.3   226     5.8   949.3    0.00 
 243   10:20   0.30   54.6    83    3.9   258     6.5   949.3    0.00 
 243   10:30   0.36   55.3    81    3.0   269     6.6   949.3    0.00 
 243   10:40   0.70   57.0    77    2.6   263     4.9   949.2    0.00 
 243   10:50   0.82   59.5    70    2.3   240     5.3   949.2    0.00 
 243   11:00   0.79   60.1    69    4.2   241     8.3   949.2    0.00 
 243   11:10   0.91   59.0    71    2.9   208     6.9   949.0    0.00 
 243   11:20   0.92   60.8    66    2.8   167     6.5   948.9    0.00 
 243   11:30   0.92   61.9    63    2.7   179     5.9   948.8    0.00 
 243   11:40   0.93   64.1    59    6.5   262    13.0   948.8    0.00 
 243   11:50   0.94   64.5    58    6.5   247    11.1   948.9    0.00 
 243   12:00   0.94   64.3    56    7.0   260    11.7   948.9    0.00 
 243   12:10   0.94   64.4    55    4.7   254    12.1   948.8    0.00 
 243   12:20   0.94   64.1    55    5.1   269     9.1   948.7    0.00 
 243   12:30   0.94   64.9    52    4.7   233     9.6   948.6    0.00 
 243   12:40   0.94   66.6    48    4.6   276    10.5   948.6    0.00 
 243   12:50   0.93   67.8    44    4.3   236    10.7   948.7    0.00 
 243   13:00   0.89   67.9    45    6.0   258    12.3   948.7    0.00 
 243   13:10   0.91   68.1    45    6.2   243    12.2   948.7    0.00 
 243   13:20   0.90   67.8    44    5.6   253    10.2   948.6    0.00 
 243   13:30   0.89   67.2    46    4.4   220     8.3   948.5    0.00 
 243   13:40   0.88   67.6    45    3.6   243     7.2   948.5    0.00 
 243   13:50   0.86   68.5    44    3.5   255     6.7   948.3    0.00 
 243   14:00   0.84   69.1    47    4.9   245    11.3   948.2    0.00 
 243   14:10   0.82   68.6    50    6.7   250    12.9   948.1    0.00 
 243   14:20   0.80   68.9    50    6.6   243    12.4   948.0    0.00 
 243   14:30   0.78   68.3    51    6.9   243    12.6   947.8    0.00 
 243   14:40   0.75   68.3    51    7.5   234    13.2   947.8    0.00 
 243   14:50   0.73   69.1    50    6.3   241    10.3   947.8    0.00 
 243   15:00   0.70   68.6    51    6.1   244    12.7   947.8    0.00 
 243   15:10   0.68   69.4    50    6.8   251    12.6   947.7    0.00 
 243   15:20   0.66   68.1    53    7.4   236    12.1   947.7    0.00 
 243   15:30   0.61   67.7    53    5.8   236     9.7   947.6    0.00 
 243   15:40   0.53   66.9    55    6.6   226    10.9   947.5    0.00 
 243   15:50   0.56   66.4    56    6.5   232    11.3   947.5    0.00 
 243   16:00   0.41   67.2    55    7.2   262    11.5   947.5    0.00 
 243   16:10   0.47   68.0    54    6.5   275    11.0   947.4    0.00 
 243   16:20   0.47   68.5    53    6.1   278     9.6   947.3    0.00 
 243   16:30   0.42   67.7    54    5.1   272     9.2   947.2    0.00 
 243   16:40   0.39   67.0    56    6.0   257    10.0   947.2    0.00 
 243   16:50   0.33   66.4    56    6.1   272    11.6   947.2    0.00 
 243   17:00   0.28   66.1    56    8.5   279    12.4   947.4    0.00 
 243   17:10   0.28   65.0    58    8.2   282    12.5   947.5    0.00 
 243   17:20   0.21   63.3    62    7.3   281    10.7   947.5    0.00 
 243   17:30   0.18   62.3    64    6.7   280    11.3   947.5    0.00 
 243   17:40   0.17   62.1    64    6.9   279    10.3   947.4    0.00 
 243   17:50   0.15   61.2    66    6.0   292    10.2   947.2    0.00 
 243   18:00   0.07   60.2    68    7.1   279     9.9   947.2    0.00 
 243   18:10   0.07   58.8    72    7.0   286     9.9   947.3    0.00 
 243   18:20   0.05   58.0    73    6.9   283     9.6   947.4    0.00 
 243   18:30   0.02   57.0    75    5.8   296     9.1   947.4    0.00 

Return to Blue Oak Ranch Reserve graphs page.


Western Regional Climate Center,wrcc@dri.edu